Eindhoven, Netherlands

12:14 AM CEST on October 22, 2017 (GMT +0200)
Eindhoven Air Base

Weather History for EHEH - August, 2013

Change the Weather History Date:

Monday, August 26, 2013

  Actual Average Record
Temperature  
Mean Temperature 64 °F -  
Max Temperature 74 °F 67 °F 91 °F (2001)
Min Temperature 53 °F 51 °F 50 °F (2005)
Degree Days  
Heating Degree Days 2    
Growing Degree Days 14 (Base 50)    
Moisture  
Dew Point 53 °F    
Average Humidity 75    
Maximum Humidity 100    
Minimum Humidity 31    
Precipitation  
Precipitation 0.00 in - - ()
Sea Level Pressure  
Sea Level Pressure 29.98 in    
Wind  
Wind Speed 6 mph ()    
Max Wind Speed 18 mph    
Max Gust Speed -    
Visibility 4.9 miles    
Events Fog    
Averages and records for this station are not official NWS values.
T = Trace of Precipitation, MM = Missing Value Source: Averaged Metar Reports

Daily Weather History Graph

Daily Weather History Graph

Search for Another Location

Airport or City:

Trip Planner

Search our weather history database for the weather conditions in past years. The results will help you decide how hot, cold, wet, or windy it might be!

Date:

Astronomy

Aug. 26, 2013 Rise Set
Actual Time 6:41 AM CEST 8:37 PM CEST
Civil Twilight 6:05 AM CEST 9:13 PM CEST
Nautical Twilight 5:21 AM CEST 9:57 PM CEST
Astronomical Twilight 4:31 AM CEST 10:46 PM CEST
Moon 10:49 PM CEST (8/26) 1:14 PM CEST (8/26)
Length of Visible Light 15h 07m
Length of Day
13h 56m
Waning Gibbous, 69% of the Moon is Illuminated
Aug 26
Waning Gibbous
Aug 28
Last Quarter
Sep 5
New
Sep 12
First Quarter
Sep 19
Full

Hourly Weather History & Observations

Time (CEST) Temp. Dew Point Humidity Pressure Visibility Wind Dir Wind Speed Gust Speed Precip Events Conditions
12:08 AM 60.8 °F 59.0 °F 94% 29.95 in 5.6 mi NNW 4.6 mph - N/A   Partly Cloudy
12:19 AM 59.0 °F 59.0 °F 100% 29.95 in 4.3 mi NNE 3.5 mph - N/A   Scattered Clouds
12:25 AM 59.0 °F 57.2 °F 94% 29.95 in 4.3 mi NNE 2.3 mph - N/A   Mostly Cloudy
12:37 AM 59.0 °F 57.2 °F 94% 29.95 in - North 2.3 mph - N/A   Mist
12:51 AM 59.0 °F 57.2 °F 94% 29.95 in - NNW 1.2 mph - N/A   Mist
12:55 AM 59.0 °F 57.2 °F 94% 29.95 in 1.4 mi Calm Calm - N/A   Mist
1:00 AM 59.0 °F 57.2 °F 94% 29.95 in 0.7 mi North 1.2 mph - N/A   Partly Cloudy
1:04 AM 59.0 °F 57.2 °F 94% 29.95 in 1.1 mi North 1.2 mph - N/A   Partly Cloudy
1:08 AM 59.0 °F 57.2 °F 94% 29.95 in 0.6 mi North 1.2 mph - N/A Fog Fog
1:12 AM 57.2 °F 57.2 °F 100% 29.95 in 1.1 mi North 1.2 mph - N/A   Partly Cloudy
1:18 AM 57.2 °F 55.4 °F 94% 29.95 in 0.9 mi NNW 1.2 mph - N/A   Partly Cloudy
1:25 AM 57.2 °F 55.4 °F 94% 29.95 in 1.2 mi NNW 1.2 mph - N/A   Partly Cloudy
1:32 AM 57.2 °F 57.2 °F 100% 29.95 in - North 1.2 mph - N/A Fog Fog
1:55 AM 57.2 °F 57.2 °F 100% 29.95 in 0.2 mi North 2.3 mph - N/A Fog Fog
2:00 AM 56 °F 55 °F 97% 29.98 in 0 mi North 2.2 mph - - Fog Fog
2:02 AM 55.4 °F 55.4 °F 100% 29.98 in 0.6 mi North 2.3 mph - N/A Fog Fog
2:06 AM 55.4 °F 55.4 °F 100% 29.95 in - NNE 3.5 mph - N/A Fog Fog
2:12 AM 55.4 °F 55.4 °F 100% 29.95 in 0.7 mi NNE 4.6 mph - N/A   Mist
2:16 AM 55.4 °F 55.4 °F 100% 29.95 in 1.0 mi NNE 5.8 mph - N/A   Mist
2:20 AM 55.4 °F 53.6 °F 94% 29.95 in 0.7 mi NE 6.9 mph - N/A   Mist
2:25 AM 57.2 °F 55.4 °F 94% 29.95 in 1.1 mi NNE 8.1 mph - N/A   Mist
2:30 AM 57.2 °F 55.4 °F 94% 29.95 in - NE 8.1 mph - N/A   Partly Cloudy
2:34 AM 57.2 °F 55.4 °F 94% 29.95 in - NE 8.1 mph - N/A   Partly Cloudy
2:38 AM 57.2 °F 55.4 °F 94% 29.95 in - NE 6.9 mph - N/A   Partly Cloudy
2:42 AM 57.2 °F 55.4 °F 94% 29.95 in 3.1 mi NE 6.9 mph - N/A   Mist
2:46 AM 57.2 °F 53.6 °F 88% 29.95 in 5.0 mi NE 6.9 mph - N/A   Mist
2:50 AM 57.2 °F 53.6 °F 88% 29.95 in 4.3 mi NE 6.9 mph - N/A   Mist
2:55 AM 57.2 °F 53.6 °F 88% 29.95 in 5.0 mi NE 6.9 mph - N/A   Mist
3:08 AM 55.4 °F 53.6 °F 94% 29.95 in 5.6 mi NNE 8.1 mph - N/A   Mist
3:18 AM 55.4 °F 53.6 °F 94% 29.98 in 4.3 mi NE 8.1 mph - N/A   Mist
3:25 AM 55.4 °F 51.8 °F 88% 29.98 in 5.6 mi NE 8.1 mph - N/A   Mist
3:38 AM 55.4 °F 51.8 °F 88% 29.98 in 6.2 mi NNE 6.9 mph - N/A   Unknown
3:55 AM 55.4 °F 51.8 °F 88% 29.98 in 5.6 mi NE 8.1 mph - N/A   Scattered Clouds
4:25 AM 55.4 °F 51.8 °F 88% 29.98 in 6.2 mi NE 8.1 mph - N/A   Mostly Cloudy
4:55 AM 53.6 °F 50.0 °F 88% 29.98 in 6.2 mi NE 8.1 mph - N/A   Partly Cloudy
5:25 AM 53.6 °F 50.0 °F 88% 29.98 in 6.2 mi NE 6.9 mph - N/A   Partly Cloudy
5:55 AM 53.6 °F 50.0 °F 88% 29.98 in 6.2 mi NE 8.1 mph - N/A   Unknown
6:25 AM 53.6 °F 50.0 °F 88% 29.98 in 6.2 mi NE 8.1 mph - N/A   Scattered Clouds
6:26 AM 53.6 °F 50.0 °F 88% 29.98 in 6.2 mi NE 8.1 mph - N/A   Partly Cloudy
6:55 AM 53.6 °F 50.0 °F 88% 29.98 in 6.2 mi NE 8.1 mph - N/A   Overcast
7:25 AM 53.6 °F 50.0 °F 88% 29.98 in 6.2 mi NNE 6.9 mph - N/A   Mostly Cloudy
7:55 AM 55.4 °F 50.0 °F 82% 30.01 in 6.2 mi NNE 8.1 mph - N/A   Mostly Cloudy
8:25 AM 57.2 °F 51.8 °F 82% 30.01 in 6.2 mi NE 8.1 mph - N/A   Mostly Cloudy
8:55 AM 59.0 °F 51.8 °F 77% 30.01 in 6.2 mi NE 8.1 mph - N/A   Mostly Cloudy
9:25 AM 59.0 °F 51.8 °F 77% 30.01 in 6.2 mi NE 9.2 mph - N/A   Mostly Cloudy
9:55 AM 60.8 °F 53.6 °F 77% 30.01 in 6.2 mi NE 8.1 mph - N/A   Overcast
10:25 AM 64.4 °F 53.6 °F 68% 30.01 in 6.2 mi NE 10.4 mph - N/A   Overcast
10:55 AM 64.4 °F 53.6 °F 68% 30.01 in 6.2 mi NNE 13.8 mph - N/A   Overcast
11:00 AM 66 °F 54 °F 57% 30.04 in 25 mi NNE 11.2 mph - -   Mostly Cloudy
11:25 AM 66.2 °F 53.6 °F 64% 30.04 in 6.2 mi NNE 13.8 mph - N/A   Mostly Cloudy
11:55 AM 68.0 °F 53.6 °F 60% 30.01 in 6.2 mi NNE 12.7 mph - N/A   Scattered Clouds
12:04 PM 69.8 °F 53.6 °F 56% 30.01 in 6.2 mi NNE 12.7 mph - N/A   Mostly Cloudy
12:25 PM 71.6 °F 53.6 °F 53% 30.01 in 6.2 mi NNE 13.8 mph - N/A   Partly Cloudy
12:55 PM 71.6 °F 51.8 °F 50% 30.01 in 6.2 mi NE 13.8 mph - N/A   Scattered Clouds
1:25 PM 71.6 °F 50.0 °F 46% 30.01 in 6.2 mi NE 15.0 mph - N/A   Scattered Clouds
1:55 PM 71.6 °F 50.0 °F 46% 30.01 in 6.2 mi NE 16.1 mph - N/A   Mostly Cloudy
2:00 PM 71 °F 49 °F 35% 30.02 in 25 mi NE 17.9 mph - -   Partly Cloudy
2:25 PM 71.6 °F 50.0 °F 46% 30.01 in 6.2 mi NE 13.8 mph - N/A   Overcast
2:55 PM 71.6 °F 50.0 °F 46% 30.01 in 6.2 mi NE 13.8 mph - N/A   Overcast
3:25 PM 71.6 °F 48.2 °F 43% 30.01 in 6.2 mi NE 13.8 mph - N/A   Overcast
3:55 PM 73.4 °F 53.6 °F 50% 30.01 in 6.2 mi NE 11.5 mph - N/A   Overcast
4:25 PM 73.4 °F 48.2 °F 41% 30.01 in 6.2 mi NE 12.7 mph - N/A   Mostly Cloudy
4:55 PM 73.4 °F 51.8 °F 47% 29.98 in 6.2 mi NE 13.8 mph - N/A   Overcast
5:00 PM 74 °F 50 °F 31% 30.00 in 22 mi ENE 13.4 mph - -   Mostly Cloudy
5:25 PM 73.4 °F 48.2 °F 41% 29.98 in 6.2 mi NE 13.8 mph - N/A   Unknown
5:55 PM 73.4 °F 50.0 °F 44% 29.98 in 6.2 mi ENE 11.5 mph - N/A   Partly Cloudy
6:25 PM 73.4 °F 50.0 °F 44% 29.98 in 6.2 mi NE 10.4 mph - N/A   Overcast
6:55 PM 71.6 °F 50.0 °F 46% 29.98 in 6.2 mi NE 11.5 mph - N/A   Overcast
7:25 PM 69.8 °F 51.8 °F 53% 29.98 in 6.2 mi NNE 8.1 mph - N/A   Overcast
7:55 PM 69.8 °F 50.0 °F 49% 30.01 in 6.2 mi ENE 6.9 mph - N/A   Overcast
8:00 PM 70 °F 51 °F 39% 30.01 in 22 mi ENE 4.5 mph - -   Partly Cloudy
8:25 PM 68.0 °F 51.8 °F 56% 30.01 in 6.2 mi NE 5.8 mph - N/A   Overcast
8:55 PM 68.0 °F 51.8 °F 56% 30.01 in 6.2 mi NNE 6.9 mph - N/A   Overcast
9:25 PM 69.8 °F 50.0 °F 49% 30.01 in 6.2 mi ENE 6.9 mph - N/A   Overcast
9:55 PM 68.0 °F 51.8 °F 56% 30.01 in 6.2 mi NE 5.8 mph - N/A   Mostly Cloudy
10:25 PM 64.4 °F 53.6 °F 68% 30.01 in 6.2 mi NNE 5.8 mph - N/A   Overcast
10:36 PM 64.4 °F 53.6 °F 68% 30.01 in 6.2 mi NNE 5.8 mph - N/A   Overcast
10:55 PM 64.4 °F 51.8 °F 64% 30.01 in 6.2 mi NNE 6.9 mph - N/A   Overcast
11:00 PM 64 °F 53 °F 58% 30.02 in 28 mi NNE 6.7 mph - -   Overcast
11:25 PM 64.4 °F 53.6 °F 68% 30.01 in 6.2 mi NNE 4.6 mph - N/A   Overcast
11:55 PM 62.6 °F 53.6 °F 72% 30.01 in 6.2 mi NNE 6.9 mph - N/A   Mostly Cloudy